Tracking 19242 objects as of 20-Sep-2018
HD Live streaming from Space Station
objects crossing your sky now

ITF-2

Track ITF-2 now!
10-day predictions
ITF-2 is classified as:


NORAD ID: 41932
Int'l Code: 1998-067KU
Perigee: 325.1 km
Apogee: 328.6 km
Inclination: 51.6 °
Period: 90.9 minutes
Semi major axis: 6697 km
RCS: Unknown
Launch date: November 20, 1998
Source: Japan (JPN)
Launch site: TYURATAM MISSILE AND SPACE COMPLEX (TTMTR)
Uplink (MHz):
Downlink (MHz): 437.525
Beacon (MHz): 437.525
Mode: 1200bps FM CW
Call sign: JQ1ZTK
Status: Active

aabbcc
Your satellite tracking list
Your tracking list is empty




NASA's NSSDC Master Catalog

Two Line Element Set (TLE):
1 41932U 98067KU  18262.31334286  .00053754  00000-0  23881-3 0  9997
2 41932  51.6285 213.3819 0002632 153.6703 206.4434 15.83796968 95642
Source of the keplerian elements: AMSAT